Location: Caltech
(34.1382°N, 118.1253°W)
Time: 00:58:34
(UTC-07:00)

RS-15 - Visible Passes

Search period start: 17 August 2017 00:00
Search period end: 27 August 2017 00:00
Orbit: 1883 x 2162 km, 64.8° (Epoch: 16 August)

Date Brightness Start Highest point End Pass type
(mag) Time Alt. Az. Time Alt. Az. Time Alt. Az.
17 Aug 8.0 21:42:09 10° NNW 21:54:09 85° WSW 21:59:51 37° SSE visible
17 Aug 9.5 23:58:15 10° WNW 00:04:36 17° W 00:07:37 15° WSW visible
18 Aug 8.0 21:06:04 10° NNW 21:18:06 77° ENE 21:25:21 27° SE visible
18 Aug 9.3 23:20:30 10° NW 23:29:09 25° W 23:33:08 20° SW visible
19 Aug 8.2 20:30:04 10° NNW 20:41:55 60° NE 20:50:56 18° SE visible
19 Aug 9.0 22:43:31 10° NW 22:53:36 35° WSW 22:58:43 25° SW visible
20 Aug 8.5 19:54:06 10° NNW 20:05:35 47° NE 20:16:25 10° ESE visible
20 Aug 8.6 22:06:54 10° NW 22:17:57 48° WSW 22:24:21 25° SSW visible
21 Aug 8.3 21:30:32 10° NW 21:42:10 63° WSW 21:50:04 22° S visible
22 Aug 8.1 20:54:19 10° NNW 21:06:17 82° WSW 21:15:50 17° SSE visible
22 Aug 9.8 23:10:47 10° WNW 23:16:38 15° W 23:22:24 10° SW visible
23 Aug 8.1 20:18:13 10° NNW 20:30:16 79° ENE 20:41:35 10° SSE visible
23 Aug 9.5 22:32:51 10° NW 22:41:12 23° W 22:49:20 10° SSW visible
24 Aug 8.2 19:42:12 10° NNW 19:54:06 62° ENE 20:05:17 10° SE visible
24 Aug 9.2 21:55:47 10° NW 22:05:40 33° WSW 22:15:11 10° SSW visible
25 Aug 8.8 21:19:07 10° NW 21:30:02 46° WSW 21:40:25 10° S visible
26 Aug 8.5 20:42:44 10° NW 20:54:17 61° WSW 21:05:13 10° S visible
